sat.trackr.live / text

‹ back to catalog

SDA_1681

NORAD 65991 · 2025-230T

PAYLOAD ACTIVE UNKNOWN

§ Identity

Operator
Country
US
Launch date
2025-10-15
Launch site
AFWTR
Launch vehicle
Mass (kg)
RCS (m²)

External: N2YO · Heavens-Above · Gunter

§ Orbital elements

Epoch: 2026-09-20T14:44:35.574432Z

Period
103.95 min
Inclination
81.2990°
Eccentricity
0.0003669
Mean motion
13.85313778 rev/d
Perigee alt
942.4 km
Apogee alt
947.8 km
Semi-major
7,323.2 km
B*
1.5958e-4
RAAN
123.0071°
Arg perigee
314.8777°
Mean anomaly
45.2081°
Rev number
4,703

§ Raw data

SDA_16811 65991U 25230T   26263.61430063  .00000193  00000+0  15958-3 0  99972 65991  81.2990 123.0071 0003669 314.8777  45.2081 13.85313778 47036

JSON: /api/v1/satellites/65991 · /tle

For live sub-satellite position, see the globe view (requires WebGL).

§ Visibility from observer

Set your observer location to see the next 7 days of passes ≥ 10°. The values pass through the URL so the page stays shareable.

No JS? Fill the form by hand. The geolocation button needs JavaScript.